Eilat, Israel

12:12 PM IDT on May 25, 2017 (GMT +0300)
Eilat

Weather History for LLET - March, 2014

Change the Weather History Date:

Saturday, March 1, 2014

  Actual Average Record
Temperature  
Mean Temperature 72 °F -  
Max Temperature 85 °F 77 °F 98 °F (2004)
Min Temperature 58 °F 58 °F 50 °F (2003)
Cooling Degree Days 6    
Growing Degree Days 22 (Base 50)    
Moisture  
Dew Point 43 °F    
Average Humidity 35    
Maximum Humidity 64    
Minimum Humidity 10    
Precipitation  
Precipitation 0.00 in 0.01 in - ()
Sea Level Pressure  
Sea Level Pressure 29.94 in    
Wind  
Wind Speed 7 mph ()    
Max Wind Speed 20 mph    
Max Gust Speed -    
Averages and records for this station are not official NWS values.
T = Trace of Precipitation, MM = Missing Value Source: Averaged Metar Reports

Daily Weather History Graph

Daily Weather History Graph

Search for Another Location

Airport or City:

Trip Planner

Search our weather history database for the weather conditions in past years. The results will help you decide how hot, cold, wet, or windy it might be!

Date:

Astronomy

Mar. 01, 2014 Rise Set
Actual Time 6:06 AM IST 5:39 PM IST
Civil Twilight 5:42 AM IST 6:03 PM IST
Nautical Twilight 5:14 AM IST 6:30 PM IST
Astronomical Twilight 4:47 AM IST 6:58 PM IST
Moon 5:49 AM IST (3/1) 5:57 PM IST (3/1)
Length of Visible Light 12h 21m
Length of Day
11h 33m
New Moon, 0% of the Moon is Illuminated
Mar 1
New Moon
Mar 8
First Quarter
Mar 16
Full
Mar 24
Last Quarter
Mar 30
New

Hourly Weather History & Observations

Time (IST) Temp. Dew Point Humidity Pressure Visibility Wind Dir Wind Speed Gust Speed Precip Events Conditions
2:00 AM 59 °F 38 °F 33% 29.99 in - NNE 4.6 mph - -  
5:00 AM 58 °F 37 °F 34% 29.99 in - NNE 4.6 mph - -  
6:30 AM 59.0 °F 39.2 °F 48% 30.01 in - NNE 12.7 mph - N/A   Clear
6:50 AM 59.0 °F 37.4 °F 45% 30.01 in - NNE 13.8 mph - N/A   Clear
7:50 AM 60.8 °F 41.0 °F 48% 30.01 in - NE 19.6 mph - N/A   Clear
8:00 AM 62 °F 38 °F 30% 30.00 in - NNE 9.2 mph - -  
8:50 AM 62.6 °F 41.0 °F 45% 30.01 in - NE 16.1 mph - N/A   Clear
9:50 AM 66.2 °F 41.0 °F 40% 30.01 in - NE 16.1 mph - N/A   Clear
10:50 AM 69.8 °F 42.8 °F 38% 30.01 in - NE 15.0 mph - N/A   Clear
11:00 AM 72 °F 40 °F 20% 29.98 in - NE 4.6 mph - -  
11:50 AM 73.4 °F 42.8 °F 33% 29.98 in - NE 12.7 mph - N/A   Clear
12:50 PM 78.8 °F 41.0 °F 26% 29.95 in - ENE 8.1 mph - N/A   Clear
1:50 PM 80.6 °F 39.2 °F 23% 29.92 in - ENE 4.6 mph - N/A   Clear
2:00 PM 82 °F 35 °F 10% 29.91 in - NE 3.5 mph - -  
2:50 PM 84.2 °F 39.2 °F 20% 29.89 in - Variable 3.5 mph - N/A   Clear
3:50 PM 86.0 °F 33.8 °F 15% 29.89 in - Variable 3.5 mph - N/A   Clear
4:50 PM 84.2 °F 30.2 °F 14% 29.89 in - SSW 4.6 mph - N/A   Clear
5:00 PM 80 °F 39 °F 14% 29.88 in - SW 2.3 mph - -  
5:50 PM 80.6 °F 50.0 °F 34% 29.89 in - SW 4.6 mph - N/A   Clear
6:50 PM 75.2 °F 55.4 °F 50% 29.89 in - SW 4.6 mph - N/A   Clear
7:50 PM 73.4 °F 55.4 °F 53% 29.89 in - SW 5.8 mph - N/A   Clear
8:00 PM 71 °F 49 °F 34% 29.88 in - SSW 2.3 mph - -  
8:50 PM 71.6 °F 57.2 °F 60% 29.89 in - SSW 5.8 mph - N/A   Clear
9:50 PM 71.6 °F 55.4 °F 57% 29.89 in - SW 8.1 mph - N/A   Clear
10:50 PM 71.6 °F 59.0 °F 64% 29.89 in - SW 6.9 mph - N/A   Clear
11:00 PM 69 °F 36 °F 19% 29.87 in - SW 2.3 mph - -